Location: Buchdorf
(48.7842°N, 10.8275°E)
Time: 23:13:24
(UTC+00:00)

N. Korean satellite - Pass Details

Date: 11 March 2021
Orbit: 453 x 499 km, 97.2° (Epoch: 12 April)

Event Time Altitude Azimuth Distance (km) Brightness Sun altitude
Rises 04:55:32 0° 11° (N) 2,549 10.4 -7.9°
Reaches altitude 10° 04:57:36 10° 10° (N) 1,673 9.5 -7.5°
Maximum altitude 05:01:11 78° 285° (WNW) 506 6.5 -6.9°
Drops below altitude 10° 05:04:49 10° 199° (SSW) 1,683 9.1 -6.3°
Sets 05:06:53 0° 198° (SSW) 2,566 10.0 -6.0°
